Gene Autry, OK

11:14 PM CST on February 24, 2017 (GMT -0600)
Ardmore Municipal

Weather History for KADM - November, 2014

Change the Weather History Date:

Thursday, November 6, 2014

  Actual Average Record
Temperature  
Mean Temperature 55 °F -  
Max Temperature 71 °F 63 °F 78 °F (1999)
Min Temperature 39 °F 45 °F 30 °F (2010)
Degree Days  
Heating Degree Days 10    
Growing Degree Days 5 (Base 50)    
Moisture  
Dew Point 40 °F    
Average Humidity 77    
Maximum Humidity 100    
Minimum Humidity 27    
Precipitation  
Precipitation 0.00 in - - ()
Sea Level Pressure  
Sea Level Pressure 30.31 in    
Wind  
Wind Speed 4 mph (NNW)    
Max Wind Speed 17 mph    
Max Gust Speed 26 mph    
Visibility 10 miles    
Events      
Averages and records for this station are not official NWS values.
T = Trace of Precipitation, MM = Missing Value Source: NWS Daily Summary

Daily Weather History Graph

Daily Weather History Graph

Search for Another Location

Airport or City:

Trip Planner

Search our weather history database for the weather conditions in past years. The results will help you decide how hot, cold, wet, or windy it might be!

Date:

Astronomy

Nov. 06, 2014 Rise Set
Actual Time 6:52 AM CST 5:30 PM CST
Civil Twilight 6:26 AM CST 5:56 PM CST
Nautical Twilight 5:56 AM CST 6:26 PM CST
Astronomical Twilight 5:27 AM CST 6:55 PM CST
Moon 5:37 PM CST (11/6) 6:27 AM CST (11/6)
Length of Visible Light 11h 30m
Length of Day
10h 37m
Full, 100% of the Moon is Illuminated
Nov 6
Full
Nov 6
Full
Nov 14
Last Quarter
Nov 22
New
Nov 29
First Quarter

Hourly Weather History & Observations

Time (CST) Temp. Windchill Dew Point Humidity Pressure Visibility Wind Dir Wind Speed Gust Speed Precip Events Conditions
12:15 AM 44.1 °F 42.5 °F 43.9 °F 99% 30.26 in 10.0 mi NW 3.5 mph - N/A   Unknown
12:35 AM 44.4 °F 42.9 °F 43.9 °F 98% 30.26 in 10.0 mi NNW 3.5 mph - N/A   Unknown
12:55 AM 44.8 °F 42.4 °F 43.3 °F 95% 30.27 in 10.0 mi NNW 4.6 mph - N/A   Unknown
1:15 AM 44.1 °F 42.5 °F 43.2 °F 97% 30.26 in 10.0 mi WNW 3.5 mph - N/A   Unknown
1:35 AM 44.6 °F - 43.0 °F 94% 30.27 in 10.0 mi Calm Calm - N/A   Unknown
1:55 AM 42.4 °F - 41.4 °F 96% 30.27 in 10.0 mi Calm Calm - N/A   Unknown
2:15 AM 43.0 °F - 42.3 °F 97% 30.27 in 10.0 mi Calm Calm - N/A   Unknown
2:35 AM 43.0 °F - 42.3 °F 97% 30.27 in 10.0 mi Calm Calm - N/A   Unknown
2:55 AM 42.1 °F - 41.2 °F 97% 30.26 in 10.0 mi Calm Calm - N/A   Unknown
3:15 AM 41.9 °F - 41.0 °F 97% 30.27 in 10.0 mi Calm Calm - N/A   Unknown
3:35 AM 41.9 °F 40.0 °F 40.6 °F 95% 30.27 in 10.0 mi WSW 3.5 mph - N/A   Unknown
3:55 AM 41.2 °F 37.3 °F 40.3 °F 97% 30.27 in 10.0 mi West 5.8 mph - N/A   Unknown
4:15 AM 41.4 °F 37.6 °F 40.3 °F 96% 30.28 in 10.0 mi WSW 5.8 mph - N/A   Unknown
4:35 AM 41.4 °F 38.4 °F 40.6 °F 97% 30.28 in 10.0 mi WNW 4.6 mph - N/A   Unknown
4:55 AM 43.0 °F - 41.2 °F 93% 30.29 in 10.0 mi Calm Calm - N/A   Unknown
5:15 AM 42.1 °F - 40.1 °F 93% 30.29 in 10.0 mi Calm Calm - N/A   Unknown
5:35 AM 42.3 °F - 40.3 °F 93% 30.29 in 10.0 mi Calm Calm - N/A   Unknown
6:55 AM 39.2 °F 35.9 °F 39.2 °F 100% 30.33 in 10.0 mi West 4.6 mph - N/A   Clear
7:55 AM 44.6 °F - 42.8 °F 93% 30.36 in 10.0 mi Calm Calm - N/A   Clear
8:55 AM 51.8 °F - 46.4 °F 82% 30.38 in 10.0 mi Calm Calm - N/A   Clear
9:55 AM 60.8 °F - 46.4 °F 59% 30.38 in 10.0 mi NNE 11.5 mph - N/A   Clear
10:55 AM 66.2 °F - 39.2 °F 37% 30.38 in 10.0 mi NE 17.3 mph 26.5 mph N/A   Clear
11:55 AM 68.0 °F - 37.4 °F 33% 30.37 in 10.0 mi NE 17.3 mph 23.0 mph N/A   Clear
12:55 PM 69.8 °F - 35.6 °F 28% 30.35 in 10.0 mi NE 17.3 mph 23.0 mph N/A   Clear
1:55 PM 69.8 °F - 33.8 °F 27% 30.33 in 10.0 mi NNW 16.1 mph 20.7 mph N/A   Clear
2:55 PM 71.6 °F - 35.6 °F 27% 30.31 in 10.0 mi North 10.4 mph - N/A   Clear
3:55 PM 71.6 °F - 35.6 °F 27% 30.34 in 10.0 mi North 10.4 mph - N/A   Clear
4:55 PM 66.2 °F - 33.8 °F 30% 30.32 in 10.0 mi North 5.8 mph - N/A   Clear
5:55 PM 59.0 °F - 35.6 °F 42% 30.33 in 10.0 mi North 5.8 mph - N/A   Clear
6:55 PM 55.4 °F - 37.4 °F 51% 30.33 in 10.0 mi North 3.5 mph - N/A   Clear
7:55 PM 50.0 °F - 39.2 °F 66% 30.35 in 10.0 mi NW 4.6 mph - N/A   Clear
8:55 PM 48.2 °F - 39.2 °F 71% 30.34 in 10.0 mi Calm Calm - N/A   Clear
9:15 PM 47.8 °F - 38.8 °F 71% 30.34 in 10.0 mi Calm Calm - N/A   Clear
9:35 PM 47.1 °F - 38.1 °F 71% 30.34 in 10.0 mi Calm Calm - N/A   Clear
9:55 PM 48.4 °F - 38.8 °F 70% 30.34 in 10.0 mi NE 3.5 mph - N/A   Clear
10:15 PM 43.9 °F - 40.5 °F 88% 30.34 in 10.0 mi Calm Calm - N/A   Clear
10:35 PM 42.6 °F - 39.4 °F 88% 30.33 in 10.0 mi Calm Calm - N/A   Clear
10:55 PM 42.8 °F - 37.9 °F 83% 30.33 in 10.0 mi Calm Calm - N/A   Clear
11:15 PM 42.3 °F 40.5 °F 39.6 °F 90% 30.33 in 10.0 mi SW 3.5 mph - N/A   Clear
11:35 PM 41.5 °F 38.6 °F 38.8 °F 90% 30.33 in 10.0 mi West 4.6 mph - N/A   Clear
11:55 PM 42.6 °F - 38.1 °F 84% 30.32 in 10.0 mi Calm Calm - N/A   Clear